Flag for India Weather past 2 weeks in Jalandhar, Punjab, India

Now
81 °F

Passing clouds.


Feels Like: 81 °F
Forecast: 74 / 100 °F
Wind: No wind

Location: Amritsar Airport


UV Index: 7 (High)

Visibility: 3 mi


Pressure: 29.74 "Hg

Humidity: 42%

Dew point: 55 °F

Location of JalandharLocation

Historic Weather in Jalandhar

°F

Jalandhar temperature yesterday

Maximum temperature yesterday: 93 °F (at 2:30 PM)
Minimum temperature yesterday: 66 °F (at 6:30 AM)
Average temperature yesterday: 81 °F

Past Weeks' High & Low Weather Summary

 TemperatureHumidityPressure
High97 °F (Apr 24, 2:30 PM)100% (Apr 18, 7:00 PM)32.43 "Hg (Apr 18, 7:00 PM)
Low55 °F (Apr 10, 5:00 AM)18% (Apr 24, 1:30 PM)29.71 "Hg (Apr 17, 2:30 AM)
Average74 °F62%29.88 "Hg
* Reported Apr 9 9:30 PM — Apr 24 9:30 PM, Jalandhar, Weather by CustomWeather, © 2014

Note: Actual official high and low records may vary slightly from our data, if they occured in-between our weather recording intervals... More about our weather records

Advertising

Historic Weather Conditions — Data for Previous 24 hours

 ConditionsComfort  
Time TempWeatherWind HumidityBarometerVisibility
9:30 PM
Apr 24
82 °FPassing clouds.No wind40%29.74 "Hg3 mi
9:00 PM84 °FPassing clouds.No wind35%29.74 "Hg3 mi
8:00 PM86 °FFog.2 mph29%29.71 "Hg4 mi
7:30 PM86 °FPartly sunny.2 mph29%29.71 "Hg4 mi
7:00 PM88 °FPartly sunny.2 mph27%29.71 "Hg4 mi
6:30 PM90 °FScattered clouds.3 mph24%29.71 "Hg6 mi
6:00 PM91 °FScattered clouds.3 mph21%29.71 "Hg6 mi
5:30 PM91 °FScattered clouds.5 mph21%29.71 "Hg6 mi
5:00 PM93 °FScattered clouds.5 mph20%29.71 "Hg6 mi
4:30 PM93 °FScattered clouds.5 mph20%29.71 "Hg6 mi
4:00 PM95 °FLight fog.7 mph19%29.74 "Hg6 mi
3:30 PM95 °FScattered clouds.8 mph19%29.74 "Hg6 mi
3:00 PM97 °FSunny.6 mph18%29.77 "Hg6 mi
2:30 PM97 °FSunny.6 mph18%29.77 "Hg6 mi
2:00 PM95 °FSunny.8 mph18%29.77 "Hg6 mi
1:30 PM95 °FSunny.10 mph18%29.77 "Hg6 mi
6:00 AM66 °FFog.2 mph83%29.80 "Hg2 mi
5:30 AM64 °FFog.2 mph88%29.80 "Hg2 mi
5:00 AM66 °FFog.No wind78%29.80 "Hg2 mi
4:30 AM66 °FFog.N/A78%29.80 "Hg2 mi
4:00 AM66 °FFog.1 mph78%29.80 "Hg2 mi
3:30 AM66 °FFog.2 mph83%29.80 "Hg2 mi
3:00 AM66 °FFog.2 mph83%29.80 "Hg2 mi
2:30 AM66 °FFog.No wind83%29.80 "Hg2 mi
2:00 AM70 °FPassing clouds.No wind57%29.80 "Hg2 mi
1:30 AM70 °FPassing clouds.No wind57%29.80 "Hg2 mi
1:00 AM70 °FPassing clouds.No wind53%29.80 "Hg2 mi
12:30 AM72 °FPassing clouds.2 mph53%29.83 "Hg2 mi
12:00 AM72 °FPassing clouds.2 mph53%29.83 "Hg2 mi
11:30 PM
Apr 23
72 °FPassing clouds.No wind50%29.83 "Hg2 mi
11:00 PM73 °FHaze.No wind47%29.83 "Hg2 mi
10:00 PM75 °FHaze.1 mph47%29.80 "Hg2 mi
Weather by CustomWeather, © 2014

See weather overview